When you browse on this site, cookies collect data to enhance your experience and personalize the content and advertising you see.
Visit our Privacy Policy to learn more. By continuing to use the site, you agree to this use of cookies and data.
  • In France
  • List of Countries
  • For 7 days
  • Water Temperature
  • Satellite Maps
  • Weather Map
  • Weather Widgets
  • user-avatar
    Login

    Hourly Weather Jambol

    Today, 23 March, Saturday

    Time Temperature Precipitation Wind Pressure Humidity
    00:00 +9°C° 0 mm 1 mps 757 mmHg 68%
    01:00 +9°C° 0 mm 1 mps 757 mmHg 68%
    02:00 +8°C° 0 mm 1 mps 757 mmHg 69%
    03:00 +8°C° 0 mm 1 mps 757 mmHg 69%
    04:00 +8°C° 0 mm 1 mps 757 mmHg 69%
    05:00 +8°C° 0 mm 1 mps 756 mmHg 70%
    06:00 +9°C° 0 mm 1 mps 756 mmHg 68%
    07:00 +10°C° 0 mm 1 mps 756 mmHg 66%
    08:00 +10°C° 0 mm 2 mps 756 mmHg 64%
    09:00 +13°C° 0 mm 2 mps 756 mmHg 60%
    10:00 +14°C° 0 mm 2 mps 756 mmHg 56%
    11:00 +16°C° 0 mm 3 mps 756 mmHg 52%
    12:00 +14°C° 0 mm 3 mps 756 mmHg 53%
    13:00 +14°C° 0 mm 3 mps 756 mmHg 54%
    14:00 +14°C° 0 mm 3 mps 755 mmHg 55%
    15:00 +13°C° 0 mm 4 mps 755 mmHg 57%
    16:00 +13°C° 0 mm 4 mps 755 mmHg 58%
    17:00 +12°C° 0 mm 5 mps 755 mmHg 60%
    18:00 +11°C° 0 mm 4 mps 755 mmHg 57%
    19:00 +9°C° 0 mm 3 mps 756 mmHg 54%
    20:00 +8°C° 0 mm 3 mps 756 mmHg 52%
    21:00 +8°C° 0 mm 2 mps 756 mmHg 49%
    22:00 +8°C° 0 mm 2 mps 757 mmHg 47%
    23:00 +9°C° 0 mm 1 mps 757 mmHg 45%

    Tomorrow, 24 March, Sunday

    Time Temperature Precipitation Wind Pressure Humidity
    00:00 +8°C° 0 mm 1 mps 757 mmHg 48%
    01:00 +7°C° 0 mm 1 mps 757 mmHg 52%
    02:00 +7°C° 0 mm 1 mps 757 mmHg 55%
    03:00 +5°C° 0 mm 0 mps 756 mmHg 56%
    04:00 +5°C° 0 mm 0 mps 756 mmHg 57%
    05:00 +4°C° 0 mm 0 mps 756 mmHg 58%
    06:00 +5°C° 0 mm 0 mps 756 mmHg 55%
    07:00 +7°C° 0 mm 1 mps 756 mmHg 51%
    08:00 +8°C° 0 mm 1 mps 756 mmHg 48%
    09:00 +9°C° 0 mm 2 mps 756 mmHg 42%
    10:00 +11°C° 0 mm 3 mps 756 mmHg 35%
    11:00 +12°C° 0 mm 3 mps 756 mmHg 29%
    12:00 +13°C° 0 mm 4 mps 756 mmHg 28%
    13:00 +14°C° 0 mm 4 mps 755 mmHg 28%
    14:00 +15°C° 0 mm 4 mps 755 mmHg 27%
    15:00 +14°C° 0 mm 4 mps 755 mmHg 29%
    16:00 +14°C° 0 mm 4 mps 754 mmHg 31%
    17:00 +14°C° 0 mm 3 mps 754 mmHg 33%
    18:00 +12°C° 0 mm 3 mps 754 mmHg 40%
    19:00 +9°C° 0 mm 2 mps 754 mmHg 47%
    20:00 +7°C° 0 mm 2 mps 754 mmHg 54%
    21:00 +7°C° 0 mm 2 mps 754 mmHg 57%
    22:00 +7°C° 0 mm 1 mps 754 mmHg 60%
    23:00 +6°C° 0 mm 1 mps 754 mmHg 63%

    Day after tomorrow, 25 March, Monday

    Time Temperature Precipitation Wind Pressure Humidity
    00:00 +6°C° 0 mm 1 mps 754 mmHg 64%
    01:00 +6°C° 0 mm 1 mps 754 mmHg 64%
    02:00 +4°C° 0 mm 0 mps 753 mmHg 65%
    03:00 +5°C° 0 mm 1 mps 753 mmHg 65%
    04:00 +5°C° 0 mm 1 mps 753 mmHg 66%
    05:00 +5°C° 0 mm 1 mps 752 mmHg 66%
    06:00 +6°C° 0 mm 1 mps 752 mmHg 63%
    07:00 +7°C° 0 mm 1 mps 752 mmHg 60%
    08:00 +8°C° 0 mm 1 mps 752 mmHg 57%
    09:00 +9°C° 0 mm 2 mps 751 mmHg 52%
    10:00 +13°C° 0 mm 2 mps 751 mmHg 46%
    11:00 +15°C° 0 mm 2 mps 751 mmHg 41%
    12:00 +16°C° 0 mm 2 mps 750 mmHg 39%
    13:00 +17°C° 0 mm 3 mps 749 mmHg 36%
    14:00 +18°C° 0 mm 3 mps 749 mmHg 34%
    15:00 +18°C° 0 mm 3 mps 748 mmHg 36%
    16:00 +18°C° 0 mm 3 mps 748 mmHg 38%
    17:00 +18°C° 0 mm 3 mps 748 mmHg 40%
    18:00 +16°C° 0 mm 2 mps 748 mmHg 46%
    19:00 +13°C° 0 mm 2 mps 748 mmHg 52%
    20:00 +10°C° 0 mm 2 mps 748 mmHg 58%
    21:00 +10°C° 0 mm 2 mps 748 mmHg 60%
    22:00 +10°C° 0 mm 1 mps 748 mmHg 61%
    23:00 +9°C° 0 mm 1 mps 747 mmHg 63%

    26 March, Tuesday

    Time Temperature Precipitation Wind Pressure Humidity
    00:00 +9°C° 0 mm 1 mps 747 mmHg 65%
    01:00 +9°C° 0 mm 1 mps 747 mmHg 66%
    02:00 +8°C° 0 mm 1 mps 747 mmHg 68%
    03:00 +8°C° 0 mm 1 mps 747 mmHg 69%
    04:00 +8°C° 0 mm 1 mps 746 mmHg 70%
    05:00 +7°C° 0 mm 1 mps 746 mmHg 71%
    06:00 +9°C° 0 mm 1 mps 747 mmHg 68%
    07:00 +10°C° 0 mm 1 mps 747 mmHg 65%
    08:00 +10°C° 0 mm 2 mps 747 mmHg 61%
    09:00 +12°C° 0 mm 3 mps 747 mmHg 57%
    10:00 +13°C° 0 mm 4 mps 748 mmHg 52%
    11:00 +15°C° 0 mm 5 mps 748 mmHg 47%
    12:00 +15°C° 0 mm 6 mps 748 mmHg 46%
    13:00 +15°C° 0 mm 6 mps 748 mmHg 45%
    14:00 +14°C° 0 mm 7 mps 748 mmHg 44%
    15:00 +12°C° 0.1 mm 7 mps 749 mmHg 52%
    16:00 +10°C° 0.1 mm 7 mps 749 mmHg 60%
    17:00 +9°C° 0.1 mm 6 mps 749 mmHg 68%
    18:00 +8°C° 0.2 mm 6 mps 750 mmHg 70%
    19:00 +7°C° 0.2 mm 5 mps 751 mmHg 72%
    20:00 +6°C° 0.2 mm 4 mps 751 mmHg 74%
    21:00 +6°C° 0.1 mm 4 mps 752 mmHg 74%
    22:00 +7°C° 0.1 mm 3 mps 752 mmHg 73%
    23:00 +6°C° 0.1 mm 2 mps 752 mmHg 73%

    27 March, Wednesday

    Time Temperature Precipitation Wind Pressure Humidity
    00:00 +5°C° 0 mm 3 mps 753 mmHg 71%
    01:00 +5°C° 0 mm 3 mps 753 mmHg 69%
    02:00 +4°C° 0 mm 4 mps 753 mmHg 67%
    03:00 +4°C° 0 mm 4 mps 753 mmHg 69%
    04:00 +4°C° 0 mm 4 mps 754 mmHg 70%
    05:00 +4°C° 0 mm 4 mps 754 mmHg 71%
    06:00 +3°C° 0 mm 5 mps 754 mmHg 69%
    07:00 +3°C° 0 mm 5 mps 755 mmHg 66%
    08:00 +3°C° 0 mm 6 mps 755 mmHg 64%
    09:00 +5°C° 0 mm 6 mps 755 mmHg 57%
    10:00 +7°C° 0 mm 6 mps 756 mmHg 51%
    11:00 +8°C° 0 mm 6 mps 756 mmHg 44%
    12:00 +9°C° 0 mm 6 mps 756 mmHg 42%
    13:00 +10°C° 0 mm 6 mps 755 mmHg 40%
    14:00 +12°C° 0 mm 5 mps 755 mmHg 37%
    15:00 +10°C° 0 mm 5 mps 755 mmHg 38%
    16:00 +10°C° 0 mm 5 mps 755 mmHg 39%
    17:00 +10°C° 0 mm 5 mps 755 mmHg 40%
    18:00 +8°C° 0 mm 4 mps 756 mmHg 46%
    19:00 +7°C° 0 mm 3 mps 756 mmHg 52%
    20:00 +5°C° 0 mm 2 mps 756 mmHg 58%
    21:00 +5°C° 0 mm 2 mps 756 mmHg 61%
    22:00 +5°C° 0 mm 1 mps 757 mmHg 64%
    23:00 +4°C° 0 mm 1 mps 757 mmHg 67%

    28 March, Thursday

    Time Temperature Precipitation Wind Pressure Humidity
    00:00 +4°C° 0 mm 1 mps 757 mmHg 66%
    01:00 +4°C° 0 mm 1 mps 757 mmHg 66%
    02:00 +4°C° 0 mm 1 mps 757 mmHg 65%
    03:00 +4°C° 0 mm 1 mps 757 mmHg 63%
    04:00 +2°C° 0 mm 2 mps 757 mmHg 62%
    05:00 +2°C° 0 mm 2 mps 757 mmHg 61%
    06:00 +3°C° 0 mm 2 mps 758 mmHg 59%
    07:00 +4°C° 0 mm 3 mps 758 mmHg 57%
    08:00 +5°C° 0 mm 3 mps 758 mmHg 55%
    09:00 +6°C° 0 mm 4 mps 758 mmHg 50%
    10:00 +8°C° 0 mm 5 mps 759 mmHg 46%
    11:00 +9°C° 0 mm 5 mps 759 mmHg 41%
    12:00 +9°C° 0 mm 6 mps 758 mmHg 38%
    13:00 +10°C° 0 mm 6 mps 758 mmHg 36%
    14:00 +10°C° 0 mm 6 mps 758 mmHg 33%
    15:00 +10°C° 0 mm 6 mps 758 mmHg 34%
    16:00 +9°C° 0 mm 6 mps 758 mmHg 35%
    17:00 +9°C° 0 mm 6 mps 758 mmHg 37%
    18:00 +7°C° 0 mm 4 mps 758 mmHg 42%
    19:00 +5°C° 0 mm 3 mps 758 mmHg 48%
    20:00 +4°C° 0 mm 2 mps 759 mmHg 53%
    21:00 +4°C° 0 mm 2 mps 759 mmHg 56%
    22:00 +4°C° 0 mm 1 mps 759 mmHg 59%
    23:00 +4°C° 0 mm 1 mps 759 mmHg 61%
    Show more